Theta_e
327 321 323 324 327 329 329 325 324 328 330 331 326 329 330 331 333 336 339 339 340 340 339 339 339 339 338 338 336 337 338 341 341 335 334 335 334 329 327 323 319 317 316
323 321 323 324 326 327 327 323 325 325 330 328 327 331 334 337 338 337 336 336 338 338 338 338 338 339 338 338 337 336 338 338 342 341 337 336 335 335 330 327 324 322 319
321 321 324 325 325 326 325 326 328 327 331 329 329 331 335 336 336 335 336 337 337 337 337 337 338 339 339 338 337 336 341 341 344 344 343 339 336 335 336 330 329 328 325
321 322 324 325 325 325 324 330 336 334 334 330 330 332 336 335 335 335 335 336 337 337 336 336 336 336 337 339 337 341 344 345 346 343 344 341 339 334 333 336 333 332 330
321 322 324 325 324 324 327 332 337 336 332 331 332 333 334 335 335 335 334 334 335 336 335 335 335 334 335 336 338 340 342 344 345 346 344 343 343 336 332 334 337 335 334
321 323 325 324 323 324 328 332 337 332 330 331 332 333 334 334 334 333 333 333 333 333 333 332 333 333 336 340 337 339 343 344 345 344 342 342 339 338 336 330 334 337 336
323 324 325 324 324 326 328 335 337 332 330 331 331 332 333 332 333 333 330 329 328 327 327 327 328 331 333 337 340 339 341 343 343 344 344 340 340 339 337 335 330 334 337
324 324 324 324 324 326 328 332 334 334 330 330 331 331 331 332 331 328 327 326 327 329 329 326 325 327 332 339 336 337 340 340 343 345 344 343 339 340 339 337 331 330 330
325 324 324 324 324 326 327 329 330 330 331 331 331 332 332 329 327 326 327 332 333 335 334 334 330 328 337 338 337 337 338 342 337 342 343 344 339 340 341 341 336 331 329
337 324 324 325 324 325 327 328 330 331 332 332 332 330 327 329 330 339 332 333 334 335 335 335 333 337 340 341 338 340 341 344 341 343 345 341 338 338 339 341 341 338 334
337 324 325 325 324 325 326 328 328 329 329 329 328 327 340 343 341 343 336 339 335 334 336 335 334 338 343 343 344 343 342 343 343 341 343 341 340 338 337 338 341 341 339
341 332 326 325 325 325 326 326 328 328 328 328 327 326 340 341 342 336 336 342 340 339 343 337 339 341 343 340 340 338 339 338 337 344 343 341 340 338 335 334 338 341 341
340 339 337 334 335 337 337 333 326 326 328 335 339 331 340 341 340 338 338 341 341 342 340 338 341 342 342 341 335 340 338 338 338 342 341 341 339 338 337 336 333 337 341
337 340 338 340 341 339 343 335 327 338 338 338 340 338 335 340 338 340 342 344 344 341 341 340 340 340 340 338 339 342 339 336 338 343 341 341 339 339 338 337 334 332 336
337 338 340 341 339 340 338 339 340 342 340 341 342 340 333 334 343 340 343 343 343 342 340 339 336 337 334 332 341 341 342 340 341 343 344 344 344 343 342 339 338 334 333
336 338 338 338 341 342 341 339 340 340 341 341 341 340 336 337 343 345 343 341 341 337 338 335 334 333 333 332 337 340 341 341 341 341 343 344 345 345 344 342 341 342 336
335 335 337 339 339 341 340 339 340 339 340 339 340 339 338 335 341 345 343 338 338 338 336 334 334 335 334 331 333 337 339 338 336 339 341 342 343 343 342 342 343 343 342
335 336 338 337 335 341 341 340 340 340 339 339 338 338 336 330 333 336 337 337 340 337 335 335 336 335 333 333 335 335 335 328 331 335 339 340 340 340 338 338 339 340 341
333 334 336 338 336 338 339 344 341 340 339 339 338 336 331 334 336 337 337 337 335 335 335 336 335 333 332 334 329 318 321 324 329 332 336 336 332 335 334 333 334 335 337
334 334 337 343 343 341 341 342 341 341 340 339 338 334 334 335 335 336 336 335 336 336 335 335 335 334 326 315 312 323 330 331 335 334 332 326 325 325 326 322 327 332 333
336 336 338 341 342 341 340 340 339 339 338 336 335 334 334 335 334 335 335 335 335 334 334 333 329 319 316 310 316 328 334 333 332 329 326 320 314 315 309 308 307 309 314
338 338 338 341 340 338 337 338 338 337 335 334 334 333 333 333 333 333 332 332 333 332 330 319 311 313 313 308 320 330 331 327 325 324 317 309 307 309 308 309 308 309 311
340 339 337 339 340 339 338 338 335 334 332 331 332 329 329 330 329 330 329 326 327 324 314 307 308 313 312 307 311 326 331 328 322 316 311 311 310 310 309 308 308 309 308
339 339 338 337 336 337 337 337 336 334 331 329 327 327 326 325 324 320 317 314 311 309 307 304 306 311 310 309 307 313 314 318 318 312 311 311 310 308 309 309 310 309 308
339 337 337 338 336 336 335 335 334 331 328 327 323 322 320 318 316 312 307 305 304 303 303 302 305 308 309 309 308 309 310 309 314 313 309 309 308 308 309 309 309 309 308
337 336 336 335 333 333 330 330 330 328 326 322 320 321 314 307 306 306 305 304 304 303 301 301 303 306 307 308 308 309 310 309 308 310 308 307 307 307 310 309 308 307 307
Wind_Speed
21 21 19 20 21 20 19 19 18 19 22 22 23 25 26 26 25 24 21 20 20 19 18 17 17 16 15 14 13 16 17 16 17 20 19 19 16 14 14 16 14 13 12
25 23 21 22 21 21 20 20 20 20 22 22 24 25 24 23 22 20 18 18 18 17 17 16 16 17 16 15 15 15 14 15 16 14 18 18 18 14 13 14 13 14 14
26 25 23 22 22 22 22 21 21 22 23 23 23 23 22 20 19 17 17 17 15 15 16 16 15 15 16 17 16 15 13 13 10 11 12 17 18 14 10 10 12 13 15
26 26 25 23 23 23 22 22 21 21 22 22 22 21 19 17 16 15 14 14 13 14 13 14 14 13 14 15 15 16 12 12 11 9 8 12 13 13 9 8 10 12 13
27 26 26 25 25 24 23 22 21 21 21 21 20 19 17 15 14 12 11 12 11 12 12 12 12 12 14 15 14 14 11 10 8 7 6 8 7 12 10 7 8 11 11
27 27 26 25 25 25 24 22 20 20 20 19 18 17 14 12 10 10 9 10 10 10 10 10 10 11 12 13 11 9 6 7 10 7 10 10 8 10 9 9 7 8 9
28 27 27 26 26 25 24 22 20 19 18 17 16 14 12 10 8 8 9 9 9 9 9 9 8 8 9 10 10 9 7 8 7 4 9 12 11 10 9 9 8 6 6
26 27 27 26 26 25 23 21 20 18 17 15 13 12 10 8 8 8 8 8 8 9 9 8 7 8 9 10 10 9 5 8 6 7 6 5 7 10 10 10 9 7 5
21 27 26 26 25 24 22 20 18 16 15 14 12 11 9 8 8 7 7 8 9 9 10 10 10 10 11 10 8 7 4 8 8 1 6 2 4 8 10 10 8 7 6
18 25 26 25 24 23 21 18 16 15 14 13 11 10 9 9 8 8 8 8 9 9 9 10 11 9 9 10 10 8 6 8 4 4 10 4 4 7 8 7 7 7 7
18 25 25 24 22 21 19 17 15 14 13 12 10 11 11 8 6 6 9 9 8 8 9 10 8 7 6 6 4 8 14 12 10 4 8 7 4 6 7 6 4 4 4
20 21 22 24 22 20 16 15 13 12 11 10 10 12 9 4 2 4 5 7 7 8 6 8 9 6 3 4 5 9 12 14 11 1 2 3 4 6 6 6 4 2 0
20 23 18 21 19 16 15 12 13 12 11 12 11 13 11 6 2 2 6 6 2 3 5 4 7 1 2 6 8 8 8 5 14 4 1 4 2 1 2 6 6 5 4
28 31 24 24 21 20 13 7 13 13 10 7 2 7 10 10 8 4 5 6 5 7 4 2 5 5 8 11 2 8 11 7 4 3 3 7 6 7 7 9 9 9 8
32 29 29 30 30 23 18 13 11 9 9 8 12 11 16 17 9 11 9 10 10 12 13 14 15 16 12 7 5 5 11 9 2 9 9 8 10 9 10 11 9 9 10
32 32 31 26 33 22 22 19 16 18 19 20 19 17 14 19 17 17 18 17 18 19 19 18 15 14 12 10 12 11 8 6 9 11 15 15 15 13 12 9 10 9 7
33 34 32 29 32 27 27 26 23 24 22 20 21 22 18 22 19 17 21 20 17 17 16 14 13 13 14 12 12 12 10 9 9 13 15 17 17 13 10 8 4 4 4
38 33 28 27 27 32 24 28 27 24 24 24 25 23 20 19 19 19 21 18 17 18 17 15 13 13 15 15 13 12 10 11 11 12 12 16 17 17 14 13 10 5 2
34 35 28 25 26 30 25 26 26 25 22 25 27 23 19 18 17 19 19 16 16 18 17 16 16 14 14 14 9 9 10 10 11 11 12 13 13 15 13 10 7 3 4
34 36 35 28 27 30 25 27 25 26 26 26 23 18 16 14 15 18 17 15 16 17 17 17 18 18 12 8 6 11 9 8 9 11 5 6 6 2 5 5 2 3 6
36 36 38 34 31 33 30 29 27 27 27 25 22 18 15 13 13 16 15 14 15 16 17 15 12 13 10 4 10 15 11 10 9 5 1 5 6 4 4 5 4 2 3
38 38 39 34 31 29 31 27 23 24 25 24 19 16 16 14 13 15 15 15 17 16 13 10 9 11 7 6 12 16 13 11 9 4 1 2 0 4 5 6 5 4 4
37 36 38 33 27 27 24 27 25 25 24 18 16 14 11 12 12 14 14 13 15 12 9 9 10 12 7 6 8 12 9 6 13 4 7 10 8 6 8 8 5 5 6
35 30 33 30 27 26 27 26 26 27 24 18 17 11 11 11 11 10 10 11 11 10 8 9 11 11 10 9 8 8 7 15 6 12 14 11 8 8 9 9 5 8 7
37 31 30 29 25 27 24 25 23 22 19 17 14 8 8 7 8 8 8 9 9 8 8 10 12 12 10 8 9 11 11 9 13 20 8 8 8 7 6 6 5 5 7
36 31 24 25 24 23 19 19 18 18 18 19 12 10 8 6 6 5 6 7 8 6 7 8 11 11 9 10 9 10 9 8 9 10 7 5 9 8 10 6 3 1 5
Wind_Direction
146 141 142 140 137 132 125 119 118 118 114 110 108 108 107 106 106 106 103 103 101 98 93 90 88 89 90 90 95 94 88 93 89 82 76 73 63 60 66 72 77 85 92
150 144 144 141 138 132 125 121 120 120 119 116 115 114 112 110 107 105 104 101 99 98 93 86 84 82 79 80 88 100 93 87 80 86 75 67 65 57 55 68 77 81 83
147 146 146 143 138 132 128 126 124 121 120 120 121 120 118 113 109 104 102 102 101 94 87 84 80 77 75 79 92 101 96 86 77 84 83 63 51 57 55 76 80 81 82
149 148 148 145 140 134 132 131 126 124 125 125 126 125 122 115 108 104 103 102 97 91 84 81 77 71 70 77 97 102 102 78 68 66 79 63 47 49 48 71 85 82 85
149 151 150 146 141 137 137 134 131 132 132 132 131 128 125 119 113 106 101 98 94 87 80 76 70 66 69 83 102 99 96 76 64 79 101 76 54 44 48 71 84 90 85
149 152 151 148 143 142 143 137 136 137 138 136 135 133 129 122 114 104 94 88 85 82 77 74 70 67 76 79 90 107 99 87 98 124 115 71 49 43 49 60 77 82 86
151 154 154 152 148 148 147 143 143 143 144 142 142 138 133 123 109 96 90 81 73 68 70 70 69 70 71 75 83 94 98 94 108 143 109 72 60 47 49 53 64 82 93
158 159 158 155 152 154 153 150 150 149 149 148 146 140 133 120 106 97 86 79 71 66 65 68 72 75 74 72 67 72 81 111 83 141 112 74 34 46 46 55 61 69 86
164 163 161 158 157 158 158 157 155 153 148 147 145 139 129 114 98 83 78 69 63 62 68 70 72 80 80 73 63 73 38 70 81 71 163 140 31 46 42 48 59 66 71
173 168 165 162 162 163 164 162 156 152 151 149 146 134 118 99 92 58 76 64 56 54 59 67 71 82 80 62 69 61 31 20 12 327 155 155 46 42 32 38 48 57 61
162 170 166 165 165 166 167 167 165 160 156 155 148 133 112 100 74 85 66 60 55 53 65 73 77 80 41 14 356 0 1 349 332 341 202 168 7 18 20 16 28 43 61
163 168 167 168 168 166 169 172 173 166 160 158 152 147 127 117 136 48 18 64 56 53 66 60 48 4 347 10 16 23 16 37 20 241 160 117 359 22 11 346 336 326 345
179 165 169 159 158 156 157 172 180 169 156 157 168 163 163 141 210 286 318 313 65 22 61 9 358 332 272 282 293 344 322 356 50 53 30 160 114 74 334 310 288 268 247
164 172 174 168 160 180 169 150 173 156 166 186 182 226 192 170 176 228 222 165 124 127 149 161 247 267 269 280 234 328 295 276 338 29 262 306 299 306 306 307 290 267 254
174 178 177 179 166 176 193 169 151 159 178 183 203 194 191 173 185 197 192 181 202 210 214 229 245 249 262 252 214 296 280 283 279 302 295 278 276 283 290 289 289 272 258
175 181 185 187 170 175 177 172 178 168 181 195 202 212 216 199 193 206 214 222 233 236 241 247 244 251 261 252 226 239 268 282 223 271 272 272 280 283 291 282 284 290 268
178 187 186 177 181 175 172 183 182 182 191 200 209 220 225 217 209 217 229 234 237 245 245 248 254 263 266 258 245 242 253 241 250 258 262 276 285 310 316 318 293 293 302
174 177 185 189 192 187 184 182 192 194 202 213 220 225 234 225 213 223 228 233 240 246 247 248 257 262 270 265 263 254 234 226 233 247 265 264 275 285 289 293 300 309 264
180 182 182 190 190 189 192 191 190 198 202 218 225 227 226 216 218 224 230 235 244 256 267 277 278 278 271 275 265 184 171 233 228 238 253 267 272 257 278 289 291 242 256
187 181 184 187 190 183 186 194 190 196 205 219 228 224 220 213 213 228 233 241 255 268 275 283 285 277 265 274 222 165 163 206 237 248 253 276 306 319 301 320 322 214 236
192 189 192 194 192 195 189 190 193 201 210 216 224 228 235 225 213 234 244 251 261 267 276 277 266 253 252 256 173 157 151 186 214 213 94 302 280 331 6 25 346 269 239
201 196 197 199 198 195 193 194 198 205 212 220 224 237 233 228 225 235 246 256 261 266 270 258 224 222 216 192 171 167 156 149 155 178 241 128 194 360 11 35 48 335 354
204 197 196 200 193 188 188 191 187 200 211 219 230 237 234 228 228 234 246 250 259 258 248 222 200 204 190 159 168 183 176 186 172 136 93 85 61 37 18 15 63 21 339
203 194 195 197 199 197 194 192 200 206 208 217 234 229 242 242 235 231 229 232 235 243 234 206 193 201 198 176 151 132 132 163 164 135 108 107 75 43 21 15 36 16 1
194 200 197 203 196 185 183 197 199 196 207 223 223 232 247 226 214 215 212 217 215 218 209 196 187 192 191 190 176 154 148 147 158 167 108 133 123 77 30 33 62 348 345
191 194 188 185 183 190 181 179 192 209 202 196 207 238 225 202 212 205 202 207 211 201 182 179 182 185 177 176 174 157 162 160 159 169 150 131 135 92 129 124 138 331 311